[ hide orbit diagram ]
For accurate long-term ephemerides, please instead use our Horizons system.This orbit viewer was implemented using two-body methods, and hence should not be used for determining accurate long-term trajectories (over several years or decades) or planetary encounter circumstances.
Orbital Elements at Epoch 2459000.5 (2020-May-31.0) TDB
Reference: JPL 24 (heliocentric ecliptic J2000)
Element | Value | Uncertainty (1-sigma) | Units |
e | .2453720101330454 | 5.1107e-08 | |
a | 2.316414515212945 | 7.8939e-09 | au |
q | 1.748031229313781 | 1.1847e-07 | au |
i | 1.512146643936193 | 4.287e-06 | deg |
node | 1.503367502596279 | 0.00014221 | deg |
peri | 2.951871662840035 | 0.00014241 | deg |
M | 125.4348915270391 | 8.2955e-06 | deg |
tp | 2458551.817944099261 (2019-Mar-09.31794410) | 2.8691e-05 | TDB |
period | 1287.724158388954 3.53 | 6.5825e-06 1.802e-08 | d yr |
n | .2795629775637579 | 1.429e-09 | deg/d |
Q | 2.884797801112109 | 9.8309e-09 | au |
|
| | Orbit Determination Parameters
Additional Information
|
[ show covariance matrix ]
Physical Parameter Table
Parameter |
Symbol |
Value |
Units |
Sigma |
Reference |
Notes |
absolute magnitude |
H |
15.78 |
|
n/a |
E2021B10 |
|
rotation period |
rot_per |
2.6 |
h |
n/a |
LCDB (Rev. 2020-October); Warner et al., 2009 |
Result based on fragmentary lightcurve(s), may be completely wrong. Published Reference List: [Behrend, R. (2015) Observatoire de Geneve web site, http://obswww.unige.ch/~behrend/page_cou.html] |
|
58337 (1994 WV) Discovered 1994-Nov-25 by Kobayashi, T. at Oizumi |
Reference: 20030614/Numbers.arc | Last Updated: 2004-04-19 |
|
|